Location: Suiattle Valley
(48.3620°N, 121.4180°W)
Time: 02:28:00
(UTC-07:00)

Envisat - Visible Passes

Search period start: 23 April 2018 00:00
Search period end: 03 May 2018 00:00
Orbit: 764 x 766 km, 98.2° (Epoch: 22 April)

Date Brightness Start Highest point End Pass type
(mag) Time Alt. Az. Time Alt. Az. Time Alt. Az.
23 Apr 4.2 20:54:17 10° S 20:59:08 45° W 21:04:01 10° NNW visible
24 Apr 5.7 21:59:37 10° WSW 22:02:03 13° W 22:04:30 10° WNW visible
25 Apr 5.0 21:20:36 10° SSW 21:24:53 27° W 21:29:13 10° NW visible
26 Apr 3.8 20:42:57 10° S 20:47:56 56° W 20:52:57 10° NNW visible
27 Apr 5.6 21:47:33 10° SW 21:50:45 17° W 21:53:59 10° NW visible
28 Apr 4.7 21:09:05 10° SSW 21:13:39 33° W 21:18:15 10° NNW visible
30 Apr 5.4 21:35:43 10° SW 21:39:28 21° W 21:43:15 10° NW visible
01 May 4.3 20:57:39 10° SSW 21:02:26 41° W 21:07:15 10° NNW visible
02 May 5.8 22:03:24 10° WSW 22:05:24 12° W 22:07:25 10° WNW visible
